Location: Unspecified
(45.6635°N, 122.4424°W)
Time: 08:22:06
(UTC+00:00)

Cosmos 1674 - Visible Passes

Search period start: 22 October 2017 00:00
Search period end: 01 November 2017 00:00
Orbit: 497 x 523 km, 82.5° (Epoch: 21 October)

Date Brightness Start Highest point End Pass type
(mag) Time Alt. Az. Time Alt. Az. Time Alt. Az.
22 Oct 2.5 13:33:17 10° SSW 13:37:00 70° W 13:40:44 10° N visible
23 Oct 2.6 13:16:27 10° S 13:20:10 90° ESE 13:23:56 10° N visible
24 Oct 2.9 12:59:40 10° S 13:03:22 69° E 13:07:06 10° NNE visible
25 Oct 3.4 12:42:57 10° S 12:46:34 53° E 12:50:14 10° NNE visible
26 Oct 3.9 12:26:17 10° SSE 12:29:47 40° E 12:33:19 10° NNE visible
26 Oct 4.3 14:03:25 10° WSW 14:05:36 15° WNW 14:07:48 10° NNW visible
27 Oct 4.4 12:11:20 21° SE 12:13:01 32° E 12:16:22 10° NNE visible
27 Oct 4.1 13:46:23 11° WSW 13:48:42 18° WNW 13:51:22 10° NNW visible
28 Oct 4.8 11:56:36 25° E 11:56:36 25° E 11:59:22 10° NNE visible
28 Oct 3.8 13:31:36 22° WNW 13:31:48 23° WNW 13:34:49 10° NNW visible
29 Oct 5.6 11:41:16 15° NE 11:41:16 15° NE 11:42:17 10° NE visible
29 Oct 4.0 13:16:14 22° NW 13:16:14 22° NW 13:18:12 10° NNW visible
30 Oct 4.7 13:00:33 16° NNW 13:00:33 16° NNW 13:01:31 10° N visible
31 Oct 5.3 12:44:41 11° N 12:44:41 11° N 12:44:48 10° N visible
